Location: Strawberry
(45.6646°N, 111.9596°W)
Time: 07:54:44
(UTC+00:00)

Oscar 11 - Visible Passes

Search period start: 06 December 2022 00:00
Search period end: 16 December 2022 00:00
Orbit: 610 x 623 km, 97.6° (Epoch: 05 December)

Date Brightness Start Highest point End Pass type
(mag) Time Alt. Az. Time Alt. Az. Time Alt. Az.
06 Dec 9.9 00:18:14 10° SW 00:21:22 20° W 00:24:31 10° NW visible
06 Dec 9.7 12:00:58 10° NNE 12:01:09 11° NNE 12:01:09 11° NNE visible
07 Dec 10.2 00:35:38 10° WSW 00:37:46 13° W 00:39:54 10° WNW visible
07 Dec 9.6 12:17:10 10° NNE 12:17:20 11° NNE 12:17:20 11° NNE visible
08 Dec 9.6 12:33:27 10° N 12:33:32 10° N 12:33:32 10° N visible
12 Dec 9.9 00:19:40 10° SW 00:22:42 19° W 00:25:45 10° NW visible
13 Dec 10.2 00:37:10 10° WSW 00:39:05 13° W 00:41:01 10° WNW visible
